Location: *
(50.5492°N, 7.7469°E)
Time: 15:39:43
(UTC+00:00)

Starlink (trailer) - Pass Details

Date: 21 October 2019
Orbit: 549 x 550 km, 53.0° (Epoch: 19 November)

Event Time Altitude Azimuth Distance (km) Brightness Sun altitude
Rises 16:55:30 0° 262° (W) 2,717 10.1 -5.4°
Reaches altitude 10° 16:57:45 10° 266° (W) 1,825 8.1 -5.8°
Maximum altitude 17:01:53 68° 349° (N) 597 3.8 -6.4°
Drops below altitude 10° 17:06:01 10° 73° (ENE) 1,827 5.6 -7.1°
Enters shadow 17:06:15 - 74° (ENE) 1,918 5.7 -7.1°
